Погода в Лебедином

Украина / Полтавская область     49°06′22″N   34°06′36″E
темп.,
°C
ветер,
м/с
пор.,
м/с
влажн.,
%
обл.,
%
осадки,
мм/ч
давл.,
гПа
погр.,
м
10 апреля, сб
сб1000:00+4с34645 0.0 102752
03:00+3ссв22642 0.0 102721
06:00+2с33671 0.0 102725
09:00+7ссв34520 0.0 1027342
12:00+10ссв22345 0.0 10271991
15:00+12с23306 0.0 10262130
18:00+12с33335 0.0 10252053
21:00+7сз35545 0.0 102787
11 апреля, вс
вс1100:00+6с34590 0.0 102764
03:00+5ссв35630 0.0 102770
06:00+4ссв36650 0.0 102892
09:00+9св57503 0.0 1028442
12:00+13св6737100 0.0 10281364
15:00+14ссв6731100 0.0 10261486
18:00+13ссв5837100 0.0 1025867
21:00+9ссв4951100 0.0 1026187
12 апреля, пн
пн1200:00+8ссв4959100 0.0 1025190
03:00+7ссв41062100 0.0 1024219
06:00+7ссв51064100 0.0 1023345
09:00+7ссв4782100 0.4 1022294
12:00+11ссв377599 0.5 1021579
15:00+14св1174100 0.5 101923
18:00+15ююз2271100 0.0 101969
21:00+10юз348987 0.0 102067
13 апреля, вт
вт1300:00+10зюз258693 0.0 1020136
03:00+8ююз239281 0.0 102053
06:00+7ююз3394100 0.0 102161
09:00+10ююз3482100 0.0 1021269
12:00+13ю3470100 0.0 1021629
15:00+15ююв346099 0.0 10201110
18:00+14ююв2465100 0.0 1019218
21:00+13ююв3369100 0.0 102071
14 апреля, ср
ср1400:00+12ю3473100 0.0 101999
03:00+11ююз3575100 0.0 1018129
06:00+10юз2479100 0.0 1018114
09:00+12ю236596 0.0 1018455
12:00+15ююв4656100 0.0 10171400
15:00+15ююв5659100 0.1 10161210
18:00+13ююв486797 0.0 1015573
21:00+12юв41068100 0.1 1014479